Hourly Weather Roundup
Issued by NWS Central Illinois

Home | Current Version | Previous Version | Text Only | Print | Product List | Glossary On
Versions: 1 2 3 4 5 6 7 8 9 10 11 12 13 14 15 16 17 18 19 20 21 22 23 24 25 26 27 28 29 30 31 32 33 34 35 36 37 38 39 40 41 42 43 44 45 46 47 48 49 50
000
NZUS43 KILX 271910
HWRILX

AREA WEATHER ROUNDUP
NATIONAL WEATHER SERVICE, LINCOLN IL
200 PM CDT MON MAR 27 2017


CITY           SKY/WX    TMP DP  RH WIND       PRES   REMARKS
BLOOMINGTON    LGT RAIN  53  51  93 NE7       29.90F
CHAMPAIGN      CLOUDY    62  48  60 E14       29.87F
DECATUR        LGT RAIN  60  50  69 E13       29.85F
EFFINGHAM      CLOUDY    57  57  99 E9        29.85F
FLORA          CLOUDY    65  59  82 SE5       29.83F
GALESBURG      DRIZZLE   51  48  89 CALM      29.89F
JACKSONVILLE   LGT RAIN  53  52  95 NE9       29.86F
LACON          RAIN      51  49  92 E3        29.89F
LAWRENCEVILLE  CLOUDY    62  57  83 SE7       29.85F
LITCHFIELD     CLOUDY    53  52  98 NE8       29.82F FOG
$$


CITY           SKY/WX    TMP DP  RH WIND       PRES   REMARKS
LINCOLN        LGT RAIN  55  54  97 NE8       29.87F
MACOMB         LGT RAIN  52  51  97 CALM      29.90F
MATTOON        LGT RAIN  54  54 100 E7        29.84F
MT CARMEL AP   CLOUDY    66  56  69 S12       29.84F
OLNEY-NOBLE AP CLOUDY    63  61  94 S9        29.84F
PARIS          LGT RAIN  56  54  92 NE5       29.87F
PEORIA         CLOUDY    52  51  97 VRB3      29.89F
PONTIAC        DRIZZLE   54  53  97 SE3       29.91F
RANTOUL        CLOUDY    59  54  82 E7        29.88F
SPRINGFIELD    CLOUDY    54  52  93 NE8       29.86F FOG
TAYLORVILLE    LGT RAIN  55  54  94 NE9       29.84F
$$

...REGIONAL REPORTS...


CITY           SKY/WX    TMP DP  RH WIND       PRES   REMARKS
CHICAGO O`HARE CLOUDY    49  43  80 E6        29.93S
KANKAKEE       LGT RAIN  56  51  82 CALM      29.91F
MOLINE         LGT RAIN  52  45  77 CALM      29.91F
MOUNT STERLING CLOUDY    51  49  96 NE9       29.87F
MOUNT VERNON   PTSUNNY   64  55  72 S13       29.83S
PITTSFIELD     CLOUDY    53  51  95 NE9       29.87F
QUINCY         LGT RAIN  53  51  93 NE12      29.86F
ROCKFORD       CLOUDY    51  44  77 SE5       29.94F
$$


CITY           SKY/WX    TMP DP  RH WIND       PRES   REMARKS
BURLINGTON     LGT RAIN  52  49  89 NE3       29.89F
CEDAR RAPIDS   CLOUDY    48  46  93 N7        29.93S FOG
DES MOINES     CLOUDY    49  42  77 N8        29.96S
KIRKSVILLE       N/A     51  50  96 N9        29.90S
OTTUMWA        CLOUDY    50  46  86 N7        29.92F
ST LOUIS       CLOUDY    57  53  86 N8        29.83F FOG
$$


CITY           SKY/WX    TMP DP  RH WIND       PRES   REMARKS
TERRE HAUTE    CLOUDY    57  53  86 E3        29.87F
EVANSVILLE     PTSUNNY   71  58  63 SW12      29.84F
INDIANAPOLIS   LGT RAIN  59  51  75 E9        29.88F
LAFAYETTE      PTSUNNY   59  52  77 E5        29.88F
MADISON        CLOUDY    47  41  80 N6        29.94S
MILWAUKEE      CLOUDY    45  39  79 E7        29.94F
$$






USA.gov is the U.S. government's official web portal to all federal, state and local government web resources and services.